Weather History for KBJC - June, 2013

Change the Weather History Date:

Friday, June 21, 2013

  Actual Average (KDEN) Record (KDEN)
Temperature  
Mean Temperature 76 °F 69 °F  
Max Temperature 91 °F 84 °F 99 °F (2007)
Min Temperature 60 °F 54 °F 39 °F (2000)
Degree Days  
Heating Degree Days 0 1  
Month to date heating degree days 54  
Since 1 June heating degree days 54  
Since 1 July heating degree days 6050  
Cooling Degree Days 10 5  
Month to date cooling degree days 74  
Year to date cooling degree days 96  
Since 1 June cooling degree days 74  
Growing Degree Days 26 (Base 50)    
Moisture  
Dew Point 33 °F    
Average Humidity 29    
Maximum Humidity 63    
Minimum Humidity 5    
Precipitation  
Precipitation 0.00 in 0.05 in 0.85 in (1947)
Month to date precipitation 1.43  
Year to date precipitation 6.96  
Snow  
Snow 0.00 in - - ()
Month to date snowfall  
Since 1 June snowfall  
Since 1 July snowfall  
Snow Depth -    
Sea Level Pressure  
Sea Level Pressure 29.95 in    
Wind  
Wind Speed 7 mph (NNW)    
Max Wind Speed 21 mph    
Max Gust Speed 40 mph    
Visibility 12 miles    
Events      
T = Trace of Precipitation, MM = Missing Value Source: NWS Daily Summary

Daily Weather History Graph

Daily Weather History Graph

Search for Another Location

Airport or City:

Trip Planner

Search our weather history database for the weather conditions in past years. The results will help you decide how hot, cold, wet, or windy it might be!

Date:

Astronomy

Jun. 21, 2013 Rise Set
Actual Time 5:32 AM MDT 8:32 PM MDT
Civil Twilight 4:59 AM MDT 9:05 PM MDT
Nautical Twilight 4:17 AM MDT 9:46 PM MDT
Astronomical Twilight 3:29 AM MDT 10:35 PM MDT
Moon 6:46 PM MDT (6/21) 3:49 AM MDT (6/21)
Length of Visible Light 16h 05m
Length of Day
15h 00m
Waxing Gibbous, 95% of the Moon is Illuminated
Jun 21
Waxing Gibbous
Jun 23
Full
Jun 29
Last Quarter
Jul 8
New
Jul 15
First Quarter

Hourly Weather History & Observations

Time (MDT) Temp. Dew Point Humidity Pressure Visibility Wind Dir Wind Speed Gust Speed Precip Events Conditions
12:16 AM 71.6 °F 32.0 °F 23% 29.97 in 10.0 mi NW 9.2 mph - N/A   Clear
12:36 AM 71.6 °F 32.0 °F 23% 29.97 in 10.0 mi NW 6.9 mph - N/A   Clear
12:56 AM 69.8 °F 32.0 °F 25% 29.97 in 10.0 mi NW 8.1 mph - N/A   Clear
1:16 AM 69.8 °F 32.0 °F 25% 29.97 in 10.0 mi WNW 9.2 mph - N/A   Clear
1:36 AM 69.8 °F 33.8 °F 27% 29.96 in 10.0 mi NW 9.2 mph - N/A   Clear
1:56 AM 69.8 °F 33.8 °F 27% 29.96 in 10.0 mi NW 9.2 mph - N/A   Clear
2:16 AM 69.8 °F 37.4 °F 31% 29.95 in 10.0 mi NNW 6.9 mph - N/A   Clear
2:36 AM 69.8 °F 35.6 °F 28% 29.95 in 10.0 mi NW 6.9 mph - N/A   Clear
2:56 AM 64.4 °F 37.4 °F 37% 29.95 in 10.0 mi North 5.8 mph - N/A   Clear
3:16 AM 64.4 °F 35.6 °F 34% 29.96 in 10.0 mi Calm Calm - N/A   Clear
3:36 AM 64.4 °F 35.6 °F 34% 29.96 in 10.0 mi Calm Calm - N/A   Clear
3:56 AM 64.4 °F 35.6 °F 34% 29.96 in 10.0 mi Calm Calm - N/A   Clear
4:15 AM 62.6 °F 37.4 °F 39% 29.96 in 10.0 mi NW 5.8 mph - N/A   Clear
4:36 AM 64.4 °F 42.8 °F 45% 29.96 in 10.0 mi NNW 6.9 mph - N/A   Clear
4:56 AM 64.4 °F 44.6 °F 49% 29.97 in 10.0 mi NW 4.6 mph - N/A   Clear
5:16 AM 60.8 °F 42.8 °F 52% 29.97 in 10.0 mi West 3.5 mph - N/A   Clear
5:36 AM 60.8 °F 46.4 °F 59% 29.97 in 10.0 mi Calm Calm - N/A   Clear
5:47 AM 62.6 °F 48.2 °F 59% 29.99 in 20.0 mi North 3.5 mph - N/A   Partly Cloudy
5:56 AM 60.8 °F 46.4 °F 59% 29.99 in 10.0 mi North 3.5 mph - N/A   Clear
6:47 AM 62.6 °F 50.0 °F 63% 29.99 in 20.0 mi WNW 3.5 mph - N/A   Partly Cloudy
7:54 AM 69.8 °F 55.4 °F 60% 29.99 in 20.0 mi Calm Calm - N/A   Clear
8:47 AM 71.6 °F 53.6 °F 53% 29.98 in 26.0 mi Calm Calm - N/A   Clear
9:55 AM 75.2 °F 51.8 °F 44% 29.96 in 25.0 mi Variable 3.5 mph - N/A   Clear
10:47 AM 80.6 °F 44.6 °F 28% 29.96 in 20.0 mi East 6.9 mph - N/A   Partly Cloudy
11:47 AM 84.2 °F 32.0 °F 15% 29.95 in 30.0 mi ENE 3.5 mph - N/A   Partly Cloudy
12:47 PM 89.6 °F 21.2 °F 8% 29.93 in 30.0 mi NNE 9.2 mph - N/A   Partly Cloudy
1:47 PM 91.4 °F 12.2 °F 5% 29.91 in 25.0 mi NNE 8.1 mph - N/A   Scattered Clouds
2:55 PM 87.8 °F 12.2 °F 6% 29.89 in 25.0 mi NE 11.5 mph - N/A   Mostly Cloudy
3:07 PM 87.8 °F 12.2 °F 6% 29.90 in 25.0 mi SSE 20.7 mph 40.3 mph N/A   Mostly Cloudy
3:47 PM 87.8 °F 6.8 °F 5% 29.88 in 25.0 mi West 6.9 mph 19.6 mph N/A   Mostly Cloudy
4:50 PM 87.8 °F 10.4 °F 6% 29.86 in 25.0 mi NW 12.7 mph 21.9 mph N/A   Mostly Cloudy
5:48 PM 86.0 °F 15.8 °F 7% 29.86 in 30.0 mi WNW 11.5 mph - N/A   Mostly Cloudy
6:49 PM 82.4 °F 17.6 °F 9% 29.87 in 30.0 mi West 13.8 mph - N/A   Mostly Cloudy
7:50 PM 86.0 °F 15.8 °F 7% 29.87 in 30.0 mi West 6.9 mph - N/A   Mostly Cloudy
8:47 PM 84.2 °F 14.0 °F 7% 29.89 in 30.0 mi SSE 4.6 mph - N/A   Mostly Cloudy
9:45 PM 84.2 °F 12.2 °F 7% 29.93 in 15.0 mi North 11.5 mph 18.4 mph N/A   Mostly Cloudy
11:16 PM 71.6 °F 42.8 °F 35% 29.97 in 10.0 mi North 10.4 mph 18.4 mph N/A   Clear
11:36 PM 69.8 °F 39.2 °F 33% 29.98 in 10.0 mi North 12.7 mph - N/A   Clear
11:56 PM 69.8 °F 39.2 °F 33% 29.99 in 10.0 mi NNW 11.5 mph 17.3 mph N/A   Clear